Regional Weather Roundup
Issued by NWS Charleston, SC

Current Version | Previous Version | Text Only | Print | Product List | Glossary Off
Versions: 1 2 3 4 5 6 7 8 9 10 11 12 13 14 15 16 17 18 19 20 21 22 23 24 25 26 27 28 29 30 31 32 33 34 35 36 37 38 39 40 41 42 43 44 45 46 47 48 49 50

000
ASUS42 KCHS 291226
RWRCHS

REGIONAL WEATHER ROUNDUP
NATIONAL WEATHER SERVICE CHARLESTON SC
800 AM EDT WED JUL 29 2015

NOTE: "FAIR" INDICATES FEW OR NO CLOUDS BELOW 12,000 FEET WITH NO
SIGNIFICANT WEATHER AND/OR OBSTRUCTIONS TO VISIBILITY.

NOT ALL STATIONS ARE QUALITY CONTROLLED BY THE NATIONAL
WEATHER SERVICE. USE DATA WITH CAUTION...ESPECIALLY
DEWPOINT OBSERVATIONS.

SCZ027-030-031-034>040-042>050-291300-
...SOUTHEAST SOUTH CAROLINA...

CITY           SKY/WX    TMP DP  RH WIND       PRES   REMARKS
N CHARLESTON   MOSUNNY   78  73  84 NE5       29.98R
6HR MIN TEMP:  74; 6HR MAX TEMP:  78;

WATERFRONT PRK   N/A     78  76  94 N7        29.94R
MOUNT PLEASANT LGT RAIN  79  75  89 CALM      29.98R
JOHNS ISLAND   FAIR      81  77  89 CALM      29.97S
PINOPOLIS      NOT AVBL
MONCKS CORNER  FAIR      79  73  83 CALM      29.98S
SUMMERVILLE    FAIR      77  75  94 CALM      30.00R
BEAUFORT MCAS  MOSUNNY   79  75  87 NE5       29.98R
6HR MIN TEMP:  75; 6HR MAX TEMP:  79;

BEAUFORT ARPT  FAIR      79  77  94 CALM      29.97S FOG
HILTON HEAD IS SUNNY     81  77  89 N6        29.98R
WALTERBORO     SUNNY     79  73  83 E6        30.00R
ALLENDALE      PTSUNNY   77  75  94 CALM      29.98R

...SOUTHERN MIDLANDS AND PEE DEE...

CITY           SKY/WX    TMP DP  RH WIND       PRES   REMARKS
GEORGETOWN     NOT AVBL
KINGSTREE      NOT AVBL
ORANGEBURG     PTSUNNY   77  72  84 E3        29.99R
6HR MIN TEMP:  75; 6HR MAX TEMP:  78;

BARNWELL       FAIR      79  75  89 E3        30.00R
AIKEN          FAIR      77  72  83 CALM      30.04R
MANNING        FAIR      75  68  78 N3        30.00R
COLUMBIA       MOSUNNY   78  72  81 E3        29.99R
6HR MIN TEMP:  76; 6HR MAX TEMP:  79;

SUMTER         CLOUDY    76  71  83 NE3       29.98R
6HR MIN TEMP:  75; 6HR MAX TEMP:  77; 6HR PCP: TRACE;

FLORENCE       MOSUNNY   77  72  84 CALM      30.00R
6HR MIN TEMP:  74; 6HR MAX TEMP:  77;

MYRTLE BEACH   SUNNY     77  70  78 N7        29.99S
N MYRTLE BEACH SUNNY     76  72  87 NE6       29.97F
6HR MIN TEMP:  72; 6HR MAX TEMP:  76;


$$

GAZ063-065-086>088-099>101-113>116-118-119-134>141-150-291300-
...SOUTHEAST GEORGIA...

CITY           SKY/WX    TMP DP  RH WIND       PRES   REMARKS
SAVANNAH ARPT  PTSUNNY   79  75  87 NE7       29.98R
6HR MIN TEMP:  76; 6HR MAX TEMP:  79;

HUNTER AAF     MOSUNNY   80  79  99 E5        29.95R
6HR MIN TEMP:  76; 6HR MAX TEMP:  80;

FORT STEWART   MOSUNNY   77  75  93 CALM      29.96R
6HR MIN TEMP:  75; 6HR MAX TEMP:  77;

STATESBORO     SUNNY     78  78 100 CALM      29.99R
SYLVANIA       PTSUNNY   78  77  96 CALM      30.00R
CLAXTON        FAIR      77  77 100 CALM      29.99R FOG

...CSRA...CENTRAL AND FAR SOUTHEAST GEORGIA...

CITY           SKY/WX    TMP DP  RH WIND       PRES   REMARKS
THOMSON        MOSUNNY   81  79  94 S3        30.04R
AUGUSTA-BUSH   MOSUNNY   78  74  87 SE3       29.98R
6HR MIN TEMP:  73; 6HR MAX TEMP:  79;

AUGUSTA-DANIEL MOSUNNY   78  73  84 SE6       30.00R
SWAINSBORO     FAIR     N/A N/A N/A S6        30.00R
VIDALIA        MOSUNNY   79  75  89 SE5       29.99R
EASTMAN        FAIR      77  77 100 CALM      30.01R
HAZLEHURST     FAIR      81  78  92 SE6       29.97R
ALMA           MOSUNNY   77  75  93 SE3       29.97R
6HR MIN TEMP:  73; 6HR MAX TEMP:  77;

WAYCROSS       SUNNY     80  79  97 CALM      29.97S
JESUP          FAIR      79  77  94 CALM      29.98S
BAXLEY         FAIR      81  77  89 SE3       29.98R
BRUNSWICK      PTSUNNY   73  73 100 NW3       29.98R
SAINT SIMONS   MOSUNNY   79  76  90 N5        29.96R
6HR MIN TEMP:  76; 6HR MAX TEMP:  79;


$$

SCZ027-028-034-036>038-045-046-048>050-GAZ119-141-291300-
...LAKE AND SUPPLEMENTAL COASTAL OBSERVATIONS...

STATION/POSITION TIME  TEMP    WIND        PRES    WAVE   SWELL
                       AIR SEA DIR/SP/G            HT/PER HT/PER/DIR
                 (UTC) (F)     (DEG/KT/KT) (MB)    (FT/S) (FT/S/D)
UPR LAKE MARION  NOT AVBL
WINYAH BAY       1100   75     320/  6     1014.0R
LAKE MURRAY      1100   78     110/  5/  7 1014.6R
ACE BASIN NERRS  NOT AVBL
FORT PULASKI     1200   81 86   20/  6/  9 1015.4R
SAPELO ISLAND    1200   80     320/  4     1015.0R

$$

ANZ835-935-AMZ111-154-330-350-352-354-370-450-454-472-291300-
...C-MAN AND BUOY OBSERVATIONS...

STATION/POSITION TIME  TEMP    WIND        PRES    WAVE   SWELL
                       AIR SEA DIR/SP/G            HT/PER HT/PER/DIR
                 (UTC) (F)     (DEG/KT/KT) (MB)    (FT/S) (FT/S/D)
BUOY 41004       1150   83 84   50/ 12/ 14 1013.5R   3/ 6   2/ 6
BUOY 41008       1150   81 82   40/  8/ 10 1014.4R   2/ 5   2/100/ 5
FOLLY BEACH CMAN 1200   80      20/  6/  8 1015.0R
CAPERS NEARSHORE 1108   81      60/ 12/ 16 1014.5R
FRIPP NEARSHORE  1100   81      40/  8/ 10 1014.0R


STATION/POSITION TIME  TEMP    WIND        PRES    WAVE   SWELL
                       AIR SEA DIR/SP/G            HT/PER HT/PER/DIR
                 (UTC) (F)     (DEG/KT/KT) (MB)    (FT/S) (FT/S/D)
5E ST. MARYS GA  1121      82                N/A     2/ 5
FRYING PAN BUOY  1150   83 84   50/ 14/ 16 1014.3S   4/ 6   2/100/11
BUOY 41025       NOT AVBL
CAPE LOOKOUT NC  1200   80      80/ 13/ 14 1015.1R
BUOY 41002       1150   82 81  250/ 14/ 17 1015.0R   6/ 7   2/120/ 9
BUOY 41010       1120   83 84  230/ 19/ 21 1012.6R
ST AUGUSTINE FL  1200   78 80  300/  6/  7 1014.8S


$$


USA.gov is the U.S. government's official web portal to all federal, state and local government web resources and services.